• In Norway
  • List of Countries
  • For 7 days
  • Water Temperature
  • Satellite Maps
  • Weather Map
  • Weather Widgets
  • user-avatar
    Login

    Hourly Weather Kupry

    Today, 22 October, Monday

    Time Temperature Precipitation Wind Pressure Humidity
    00:00 +8°C° 0 mm 1 mps 755 mmHg 76%
    01:00 +8°C° 0 mm 1 mps 755 mmHg 76%
    02:00 +7°C° 0 mm 1 mps 755 mmHg 77%
    03:00 +6°C° 0 mm 2 mps 754 mmHg 79%
    04:00 +5°C° 0 mm 2 mps 754 mmHg 82%
    05:00 +5°C° 0 mm 2 mps 753 mmHg 84%
    06:00 +5°C° 0 mm 2 mps 753 mmHg 84%
    07:00 +5°C° 0 mm 2 mps 753 mmHg 85%
    08:00 +5°C° 0 mm 2 mps 753 mmHg 86%
    09:00 +5°C° 0 mm 3 mps 753 mmHg 80%
    10:00 +8°C° 0 mm 3 mps 752 mmHg 73%
    11:00 +8°C° 0 mm 4 mps 752 mmHg 67%
    12:00 +10°C° 0 mm 4 mps 751 mmHg 65%
    13:00 +9°C° 0 mm 5 mps 751 mmHg 62%
    14:00 +10°C° 0 mm 5 mps 750 mmHg 60%
    15:00 +10°C° 0 mm 4 mps 749 mmHg 63%
    16:00 +10°C° 0 mm 4 mps 749 mmHg 66%
    17:00 +8°C° 0 mm 4 mps 748 mmHg 69%
    18:00 +8°C° 0.1 mm 4 mps 748 mmHg 72%
    19:00 +8°C° 0.1 mm 4 mps 748 mmHg 75%
    20:00 +8°C° 0.1 mm 4 mps 748 mmHg 78%
    21:00 +7°C° 0.4 mm 4 mps 748 mmHg 80%
    22:00 +7°C° 0.4 mm 4 mps 748 mmHg 82%
    23:00 +7°C° 0.4 mm 4 mps 747 mmHg 84%

    Tomorrow, 23 October, Tuesday

    Time Temperature Precipitation Wind Pressure Humidity
    00:00 +6°C° 0 mm 4 mps 747 mmHg 86%
    01:00 +5°C° 0 mm 3 mps 747 mmHg 88%
    02:00 +4°C° 0 mm 3 mps 747 mmHg 90%
    03:00 +3°C° 0 mm 3 mps 747 mmHg 90%
    04:00 +3°C° 0 mm 3 mps 747 mmHg 90%
    05:00 +2°C° 0 mm 3 mps 746 mmHg 90%
    06:00 +3°C° 0 mm 3 mps 746 mmHg 88%
    07:00 +3°C° 0 mm 3 mps 746 mmHg 87%
    08:00 +3°C° 0 mm 3 mps 746 mmHg 86%
    09:00 +4°C° 0 mm 4 mps 745 mmHg 81%
    10:00 +5°C° 0 mm 4 mps 744 mmHg 77%
    11:00 +6°C° 0 mm 5 mps 743 mmHg 72%
    12:00 +5°C° 0.1 mm 6 mps 742 mmHg 71%
    13:00 +7°C° 0.1 mm 6 mps 741 mmHg 69%
    14:00 +6°C° 0.1 mm 7 mps 739 mmHg 68%
    15:00 +5°C° 0.1 mm 7 mps 738 mmHg 70%
    16:00 +5°C° 0.1 mm 8 mps 736 mmHg 72%
    17:00 +4°C° 0.1 mm 8 mps 735 mmHg 75%
    18:00 +4°C° 1.4 mm 8 mps 733 mmHg 78%
    19:00 +4°C° 1.4 mm 8 mps 731 mmHg 81%
    20:00 +3°C° 1.4 mm 9 mps 729 mmHg 84%
    21:00 +4°C° 0.9 mm 8 mps 728 mmHg 85%
    22:00 +5°C° 0.9 mm 7 mps 727 mmHg 86%
    23:00 +7°C° 0.9 mm 6 mps 726 mmHg 87%

    Day after tomorrow, 24 October, Wednesday

    Time Temperature Precipitation Wind Pressure Humidity
    00:00 +7°C° 0.4 mm 6 mps 725 mmHg 86%
    01:00 +5°C° 0.4 mm 7 mps 725 mmHg 85%
    02:00 +5°C° 0.4 mm 7 mps 724 mmHg 84%
    03:00 +5°C° 0.5 mm 6 mps 724 mmHg 85%
    04:00 +4°C° 0.5 mm 6 mps 723 mmHg 85%
    05:00 +4°C° 0.5 mm 6 mps 723 mmHg 85%
    06:00 +4°C° 0.5 mm 6 mps 723 mmHg 84%
    07:00 +4°C° 0.5 mm 6 mps 723 mmHg 84%
    08:00 +4°C° 0.5 mm 6 mps 723 mmHg 84%
    09:00 +4°C° 0.2 mm 7 mps 723 mmHg 80%
    10:00 +4°C° 0.2 mm 8 mps 724 mmHg 77%
    11:00 +5°C° 0.2 mm 9 mps 724 mmHg 74%
    12:00 +3°C° 0.8 mm 9 mps 724 mmHg 75%
    13:00 +3°C° 0.8 mm 10 mps 724 mmHg 76%
    14:00 +3°C° 0.8 mm 10 mps 724 mmHg 77%
    15:00 +3°C° 0.6 mm 10 mps 725 mmHg 78%
    16:00 +3°C° 0.6 mm 9 mps 725 mmHg 79%
    17:00 +5°C° 0.6 mm 9 mps 726 mmHg 80%
    18:00 +3°C° 0.4 mm 9 mps 727 mmHg 81%
    19:00 +3°C° 0.4 mm 9 mps 727 mmHg 81%
    20:00 +3°C° 0.4 mm 9 mps 728 mmHg 82%
    21:00 +3°C° 0.4 mm 9 mps 729 mmHg 81%
    22:00 +3°C° 0.4 mm 9 mps 730 mmHg 81%
    23:00 +3°C° 0.4 mm 9 mps 732 mmHg 80%

    25 October, Thursday

    Time Temperature Precipitation Wind Pressure Humidity
    00:00 +3°C° 0.1 mm 9 mps 732 mmHg 79%
    01:00 +2°C° 0.1 mm 9 mps 733 mmHg 79%
    02:00 +2°C° 0.1 mm 9 mps 734 mmHg 78%
    03:00 +2°C° 0 mm 8 mps 735 mmHg 78%
    04:00 +2°C° 0 mm 8 mps 736 mmHg 78%
    05:00 +2°C° 0 mm 8 mps 736 mmHg 77%
    06:00 +2°C° 0 mm 7 mps 737 mmHg 79%
    07:00 +2°C° 0 mm 7 mps 737 mmHg 81%
    08:00 +2°C° 0 mm 6 mps 738 mmHg 84%
    09:00 +3°C° 0 mm 7 mps 738 mmHg 79%
    10:00 +4°C° 0 mm 7 mps 738 mmHg 74%
    11:00 +5°C° 0 mm 7 mps 738 mmHg 69%
    12:00 +5°C° 0.1 mm 7 mps 738 mmHg 67%
    13:00 +5°C° 0.1 mm 7 mps 738 mmHg 64%
    14:00 +6°C° 0.1 mm 7 mps 738 mmHg 61%
    15:00 +5°C° 0.1 mm 6 mps 737 mmHg 65%
    16:00 +6°C° 0.1 mm 5 mps 737 mmHg 69%
    17:00 +5°C° 0.1 mm 4 mps 737 mmHg 73%
    18:00 +5°C° 0.4 mm 3 mps 737 mmHg 78%
    19:00 +5°C° 0.4 mm 3 mps 736 mmHg 83%
    20:00 +5°C° 0.4 mm 3 mps 736 mmHg 89%
    21:00 +6°C° 0.2 mm 2 mps 736 mmHg 91%
    22:00 +6°C° 0.2 mm 2 mps 736 mmHg 93%
    23:00 +6°C° 0.2 mm 2 mps 736 mmHg 95%

    26 October, Friday

    Time Temperature Precipitation Wind Pressure Humidity
    00:00 +6°C° 0.1 mm 2 mps 736 mmHg 95%
    01:00 +5°C° 0.1 mm 3 mps 736 mmHg 95%
    02:00 +5°C° 0.1 mm 3 mps 736 mmHg 95%
    03:00 +5°C° 0.1 mm 3 mps 736 mmHg 95%
    04:00 +5°C° 0.1 mm 3 mps 736 mmHg 94%
    05:00 +5°C° 0.1 mm 3 mps 736 mmHg 93%
    06:00 +6°C° 0.1 mm 4 mps 737 mmHg 92%
    07:00 +6°C° 0.1 mm 4 mps 737 mmHg 91%
    08:00 +6°C° 0.1 mm 4 mps 737 mmHg 90%
    09:00 +7°C° 0 mm 4 mps 738 mmHg 85%
    10:00 +8°C° 0 mm 4 mps 738 mmHg 80%
    11:00 +10°C° 0 mm 4 mps 739 mmHg 75%
    12:00 +10°C° 0 mm 4 mps 739 mmHg 73%
    13:00 +10°C° 0 mm 4 mps 739 mmHg 71%
    14:00 +11°C° 0 mm 4 mps 739 mmHg 69%
    15:00 +10°C° 0.1 mm 4 mps 739 mmHg 75%
    16:00 +8°C° 0.1 mm 4 mps 739 mmHg 81%
    17:00 +8°C° 0.1 mm 4 mps 739 mmHg 87%
    18:00 +8°C° 0.1 mm 4 mps 739 mmHg 86%
    19:00 +8°C° 0.1 mm 4 mps 739 mmHg 86%
    20:00 +8°C° 0.1 mm 4 mps 739 mmHg 85%
    21:00 +8°C° 0 mm 4 mps 739 mmHg 83%
    22:00 +8°C° 0 mm 5 mps 739 mmHg 82%
    23:00 +8°C° 0 mm 5 mps 738 mmHg 80%

    27 October, Saturday

    Time Temperature Precipitation Wind Pressure Humidity
    00:00 +8°C° 0 mm 5 mps 738 mmHg 80%
    01:00 +8°C° 0 mm 5 mps 738 mmHg 80%
    02:00 +8°C° 0 mm 5 mps 738 mmHg 81%
    03:00 +8°C° 0 mm 5 mps 737 mmHg 82%
    04:00 +8°C° 0 mm 5 mps 737 mmHg 83%
    05:00 +8°C° 0 mm 5 mps 737 mmHg 85%
    06:00 +8°C° 0 mm 5 mps 737 mmHg 86%
    07:00 +7°C° 0 mm 5 mps 737 mmHg 87%
    08:00 +7°C° 0 mm 4 mps 737 mmHg 88%
    09:00 +8°C° 0 mm 5 mps 737 mmHg 84%
    10:00 +9°C° 0 mm 5 mps 737 mmHg 81%
    11:00 +10°C° 0 mm 5 mps 737 mmHg 77%
    12:00 +10°C° 0 mm 5 mps 737 mmHg 75%
    13:00 +11°C° 0 mm 4 mps 737 mmHg 73%
    14:00 +12°C° 0 mm 4 mps 737 mmHg 71%
    15:00 +11°C° 0 mm 3 mps 736 mmHg 75%
    16:00 +10°C° 0 mm 2 mps 736 mmHg 79%
    17:00 +10°C° 0 mm 2 mps 736 mmHg 83%
    18:00 +10°C° 0.1 mm 2 mps 736 mmHg 85%
    19:00 +10°C° 0.1 mm 2 mps 735 mmHg 86%
    20:00 +11°C° 0.1 mm 1 mps 735 mmHg 88%
    21:00 +10°C° 0.6 mm 2 mps 735 mmHg 90%
    22:00 +10°C° 0.6 mm 2 mps 734 mmHg 92%
    23:00 +10°C° 0.6 mm 2 mps 734 mmHg 94%
    Show more